TimeCST,TemperatureF,Dew PointF,Humidity,Sea Level PressureIn,VisibilityMPH,Wind Direction,Wind SpeedMPH,Gust SpeedMPH,PrecipitationIn,Events,Conditions,WindDirDegrees,DateUTC
12:55 AM,-9999,-9999,N/A,30.35,-9999.0,North,-9999.0,-,N/A,,Unknown,0,2013-02-02 06:55:00
1:55 AM,-9999,-9999,N/A,30.35,-9999.0,North,-9999.0,-,N/A,,Unknown,0,2013-02-02 07:55:00
2:55 AM,-9999,-9999,N/A,30.33,-9999.0,North,-9999.0,-,N/A,,Unknown,0,2013-02-02 08:55:00
3:55 AM,-9999,-9999,N/A,30.33,-9999.0,North,-9999.0,-,N/A,,Unknown,0,2013-02-02 09:55:00
5:55 AM,50.5,42.1,73,30.32,10.0,East,5.8,-,N/A,,Clear,100,2013-02-02 11:55:00
6:55 AM,52.7,41.7,66,30.32,10.0,ESE,8.1,-,N/A,,Scattered Clouds,120,2013-02-02 12:55:00
7:55 AM,56.1,42.8,61,30.33,10.0,East,5.8,-,N/A,,Scattered Clouds,100,2013-02-02 13:55:00
8:55 AM,56.7,46.9,70,30.33,10.0,ESE,8.1,-,N/A,,Scattered Clouds,120,2013-02-02 14:55:00
9:55 AM,61.2,47.3,60,30.33,10.0,East,10.4,-,N/A,,Scattered Clouds,100,2013-02-02 15:55:00
10:55 AM,64.6,49.3,58,30.31,10.0,ESE,6.9,-,N/A,,Scattered Clouds,120,2013-02-02 16:55:00
11:55 AM,67.1,51.8,58,30.29,10.0,SE,9.2,-,N/A,,Scattered Clouds,140,2013-02-02 17:55:00
12:55 PM,68.2,51.6,55,30.26,10.0,SSW,6.9,-,N/A,,Scattered Clouds,200,2013-02-02 18:55:00
1:55 PM,71.6,53.6,53,30.25,10.0,North,-9999.0,-,N/A,,Scattered Clouds,0,2013-02-02 19:55:00
2:55 PM,74.3,53.6,48,30.22,10.0,South,5.8,-,N/A,,Mostly Cloudy,170,2013-02-02 20:55:00
3:55 PM,69.3,50.2,51,30.22,10.0,SSW,8.1,-,N/A,,Mostly Cloudy,200,2013-02-02 21:55:00
4:55 PM,67.3,52.0,58,30.21,10.0,SW,5.8,-,N/A,,Scattered Clouds,220,2013-02-02 22:55:00
5:55 PM,62.6,43.0,49,30.21,10.0,SSW,4.6,-,N/A,,Scattered Clouds,200,2013-02-02 23:55:00
6:55 PM,61.3,43.0,51,30.22,10.0,SSW,3.5,-,N/A,,Scattered Clouds,200,2013-02-03 00:55:00
7:55 PM,60.3,45.9,59,30.24,10.0,Calm,Calm,-,N/A,,Scattered Clouds,0,2013-02-03 01:55:00
8:55 PM,61.2,50.2,67,30.24,10.0,Calm,Calm,-,N/A,,Scattered Clouds,0,2013-02-03 02:55:00
9:55 PM,55.4,52.2,89,30.23,10.0,Calm,Calm,-,N/A,,Partly Cloudy,0,2013-02-03 03:55:00
10:55 PM,53.6,45.1,73,30.24,10.0,Calm,Calm,-,N/A,,Clear,0,2013-02-03 04:55:00
11:55 PM,-9999,-9999,N/A,30.25,-9999.0,North,-9999.0,-,N/A,,Unknown,0,2013-02-03 05:55:00